RH
76 84 99 90 100 89 68 75 70 63 59 57 65 58 62 62 74 100 100 100 100 100 100 100 100 100 97 91 72 65 56 51 48 46 38 30 25 23 32 44 48 49 52 41
73 68 83 93 93 88 78 72 72 69 63 64 73 77 81 99 100 100 100 100 100 100 100 92 85 87 79 78 66 56 51 48 40 37 37 34 27 21 17 22 34 38 37 47
68 75 91 84 94 90 75 84 86 69 77 71 71 67 76 100 99 99 100 100 100 100 100 100 91 81 67 55 51 48 40 36 34 29 26 21 18 16 16 15 18 24 31 33
80 98 87 94 98 99 93 87 87 87 81 82 85 81 82 86 90 97 91 84 79 79 83 79 66 58 52 51 51 44 34 25 22 20 15 13 15 15 14 13 12 13 17 20
78 72 94 100 100 100 100 100 96 91 98 98 98 85 70 74 83 88 100 95 90 77 66 62 60 48 44 40 34 32 24 18 16 14 13 15 16 17 14 14 13 11 13 14
80 80 89 100 100 100 99 100 100 99 89 83 81 77 72 73 76 90 88 76 67 58 53 53 47 38 31 29 28 23 17 14 13 12 15 17 17 19 15 18 16 15 14 12
79 93 96 100 100 100 100 99 92 80 77 73 77 69 84 91 84 77 71 60 53 53 48 38 30 24 23 23 20 18 17 16 18 16 16 16 19 28 34 22 24 21 16 14
82 94 100 100 97 100 97 83 86 75 69 70 72 78 84 84 78 73 64 58 48 39 34 29 24 22 18 16 18 20 19 18 20 18 16 17 24 28 39 39 39 20 20 18
93 85 91 93 99 98 98 96 81 76 70 71 74 70 74 79 68 53 47 38 29 26 25 27 25 19 19 18 21 23 26 23 22 24 19 22 25 46 58 61 43 45 37 25
90 88 82 80 84 98 95 86 84 91 85 73 68 60 63 56 53 46 34 31 27 26 25 25 23 22 23 23 22 26 30 40 30 42 33 45 58 51 51 60 66 66 46 32
90 76 71 69 89 83 76 71 78 86 80 64 49 49 58 51 43 33 31 29 31 30 25 25 27 26 28 25 25 25 31 41 45 58 68 60 74 77 90 62 77 76 66 56
89 76 61 60 62 72 89 87 74 72 73 71 52 43 47 39 34 36 34 34 33 31 38 38 35 29 27 27 25 20 29 42 55 63 78 84 79 69 72 64 71 80 56 73
96 89 78 63 65 77 82 98 85 76 72 60 54 45 47 50 45 42 43 38 42 55 56 44 32 27 25 29 21 19 22 41 71 73 80 76 70 76 75 86 73 64 61 66
94 87 79 74 78 72 67 75 91 77 55 56 45 58 55 59 58 52 36 54 60 53 48 38 26 26 34 26 18 17 18 34 65 80 96 83 75 81 97 93 98 80 79 82
83 71 78 77 72 62 72 63 63 60 54 56 58 56 58 72 76 68 40 42 44 48 45 28 23 30 29 20 18 17 18 31 61 85 86 95 85 72 85 97 99 98 100 100
71 65 74 76 84 78 64 54 60 56 57 56 77 59 63 54 61 55 38 43 38 42 32 29 29 24 18 18 17 18 23 35 65 80 82 73 70 70 61 58 84 86 88 88
80 94 75 55 67 57 26 51 45 48 58 73 54 50 47 51 42 33 33 39 32 33 36 32 23 19 18 28 39 46 47 50 70 83 88 94 80 61 76 76 72 69 66 87
56 59 52 51 58 41 34 33 50 46 62 44 29 40 40 30 23 20 25 25 28 40 33 23 18 25 42 51 51 52 56 60 66 84 87 92 99 89 83 74 75 78 73 78
48 55 52 58 48 27 13 33 49 55 35 32 33 26 21 18 17 22 22 26 36 33 25 21 38 56 59 58 60 63 62 60 63 66 73 85 97 98 97 97 90 85 76 73
70 67 52 31 25 13 15 26 44 34 19 30 18 16 18 19 23 23 31 31 34 25 26 61 72 71 74 74 73 71 69 70 69 68 67 65 70 84 86 75 73 72 76 67
37 45 30 20 10 10 15 22 26 15 16 19 17 18 19 22 26 28 35 32 25 40 77 86 81 81 79 78 68 62 60 57 56 60 61 62 66 71 70 69 67 64 64 63
16 15 14 13 10 11 15 15 14 15 15 16 17 17 19 23 29 36 28 27 61 93 92 86 86 82 77 69 59 51 44 42 40 40 40 41 45 48 50 53 51 49 50 49
12 11 10 9 11 13 17 15 14 15 15 18 20 20 23 32 30 26 37 81 96 93 94 90 80 67 59 55 48 42 35 30 29 29 29 32 34 35 37 40 42 44 43 44
10 11 10 11 14 13 12 13 15 17 18 19 21 27 31 27 28 56 94 97 94 95 88 74 65 54 52 40 28 24 22 20 19 19 19 20 20 22 23 23 24 26 26 28
12 12 12 13 12 13 16 17 18 22 23 29 33 28 28 39 71 94 96 97 95 86 73 64 61 49 34 25 22 20 18 18 18 18 18 18 19 19 20 22 24 25 27 29
12 12 13 12 13 15 17 18 20 24 29 28 24 27 61 90 97 97 97 94 88 77 68 63 50 35 26 23 20 20 22 24 24 25 27 27 28 29 31 32 32 33 34 33
Wind_Speed
70 69 75 75 71 74 73 67 64 68 67 63 67 67 67 66 64 67 69 73 73 74 78 80 81 84 84 87 91 93 95 95 96 93 93 90 86 83 84 85 86 88 89 85
76 75 76 77 77 74 72 70 74 72 73 66 64 65 64 65 69 74 77 80 83 85 88 89 89 89 92 93 97 99 100 99 97 94 95 96 96 93 89 90 90 90 91 92
80 80 80 79 78 80 79 77 77 74 72 71 67 69 66 69 75 80 84 87 89 90 90 90 91 93 95 96 98 100 99 98 98 98 96 96 96 94 94 92 92 93 95 97
83 88 87 83 84 84 82 86 83 78 76 74 73 75 73 73 76 82 87 89 90 91 92 93 96 97 98 97 99 100 99 100 100 100 91 89 90 90 91 92 90 91 96 98
93 93 91 87 88 87 86 86 86 83 79 76 77 81 78 80 81 83 87 90 92 94 97 98 99 99 98 98 99 101 100 100 95 91 83 80 79 78 82 81 83 83 88 95
98 97 94 92 92 91 88 87 86 86 86 84 85 87 77 80 84 86 89 92 97 100 100 100 100 101 103 102 102 102 95 90 82 78 70 69 67 66 68 68 72 74 81 86
100 98 96 94 96 96 91 92 91 90 90 90 89 88 82 84 88 93 96 100 102 105 105 104 104 102 98 95 94 86 87 77 66 62 61 59 58 58 60 59 62 70 73 80
104 102 99 98 99 96 95 97 97 97 95 93 89 85 87 91 96 100 103 104 106 106 104 101 99 92 86 81 77 74 75 64 55 51 53 49 51 54 57 56 64 64 67 74
106 103 101 100 99 98 97 99 99 99 98 96 94 93 93 97 103 104 104 104 103 98 94 90 85 78 74 67 65 63 60 56 48 44 46 45 46 48 52 57 58 59 63 67
104 103 101 101 99 99 101 101 101 103 103 102 101 98 99 103 107 107 102 98 92 88 86 81 76 70 68 61 56 55 54 53 47 43 44 43 45 47 50 53 55 59 62 65
107 106 103 101 100 103 104 103 104 106 109 110 108 99 102 104 104 98 93 89 85 81 79 75 72 66 61 54 50 51 50 51 50 42 44 47 44 50 53 52 51 54 60 63
109 107 106 105 104 107 108 109 109 110 112 113 113 100 101 97 89 87 83 79 77 73 71 70 65 60 56 50 48 47 46 49 50 44 43 49 49 48 51 51 51 55 59 59
112 112 110 109 108 109 109 109 110 112 115 108 106 90 85 84 80 78 75 70 66 65 67 65 62 56 52 48 47 45 45 47 51 46 44 46 50 47 49 48 53 51 50 50
118 116 115 112 112 112 111 108 109 110 102 95 87 85 77 73 72 74 68 63 61 64 64 61 56 53 49 47 47 47 46 46 50 51 52 50 55 52 49 48 52 50 49 49
120 119 117 112 113 111 108 107 102 95 88 90 77 77 72 67 67 72 68 66 63 62 60 58 53 48 46 48 47 47 47 47 50 54 53 55 57 54 50 50 50 48 49 48
118 115 112 108 109 109 104 94 85 85 83 79 77 67 68 66 67 72 69 65 62 59 58 55 50 45 45 46 47 48 47 48 51 53 57 55 58 59 52 48 52 52 52 56
113 112 110 103 102 101 94 83 79 77 76 75 73 68 64 67 68 66 63 62 59 55 53 49 44 44 43 42 43 44 45 44 50 56 55 54 58 54 52 53 55 53 49 49
104 101 100 95 96 94 82 76 75 77 74 74 67 62 62 63 62 58 57 55 52 51 47 44 43 41 38 38 39 41 42 43 43 52 53 51 56 54 55 52 51 51 54 55
94 98 98 98 94 86 67 73 75 75 69 66 64 59 57 56 53 50 50 46 46 44 42 42 39 37 35 36 36 37 38 39 41 44 50 53 56 59 60 61 60 58 57 57
98 98 97 90 86 72 61 64 70 71 56 66 57 51 50 48 46 47 43 42 39 40 40 37 35 35 35 35 36 37 38 39 40 41 43 45 50 56 60 59 58 57 55 53
89 87 86 83 70 57 54 60 62 58 53 52 49 46 44 43 41 39 37 37 38 36 34 35 35 37 38 40 41 42 43 43 43 44 45 45 46 47 49 51 51 50 49 49
75 73 72 71 62 52 53 50 50 46 47 44 43 41 40 39 37 33 35 35 32 31 32 35 37 39 42 44 44 44 42 41 41 41 43 45 46 48 49 52 53 52 52 52
62 61 60 55 49 45 46 47 43 41 40 37 37 37 35 33 32 33 31 29 29 31 34 37 40 41 40 40 39 36 35 35 34 34 35 36 38 40 42 43 44 46 46 46
53 51 48 43 42 42 41 39 36 34 35 34 34 32 30 30 31 29 27 27 29 32 36 39 40 38 34 33 32 32 32 32 31 31 31 32 33 35 37 39 40 40 41 41
39 41 40 36 36 33 32 33 32 31 30 29 29 29 29 28 26 26 27 29 31 34 36 36 35 32 30 29 30 29 28 27 27 26 26 27 28 31 33 34 36 37 38 40
34 31 31 31 29 29 29 30 28 28 28 29 29 28 25 24 24 26 29 30 31 34 33 30 28 28 27 27 27 26 24 23 24 23 24 25 26 28 30 32 35 36 38 40
Wind_Direction
285 282 282 285 283 282 284 282 283 286 287 289 286 286 284 285 279 272 269 269 272 274 277 280 280 279 280 279 280 280 281 281 281 282 281 280 275 269 264 260 259 259 259 256
288 288 284 284 283 282 282 283 285 289 289 287 284 282 283 281 275 272 273 270 272 275 279 280 279 278 280 280 281 281 282 282 281 281 280 279 275 271 264 258 256 254 254 253
288 288 284 285 282 282 284 285 286 287 284 284 283 282 281 278 275 275 275 276 277 278 279 279 279 279 281 283 283 283 283 284 282 281 280 277 273 269 264 259 254 252 251 250
286 284 286 284 281 283 283 285 286 283 283 283 284 283 282 279 276 275 274 275 277 278 278 278 279 281 282 283 285 287 287 286 285 283 280 275 271 267 263 259 255 252 248 248
286 285 284 281 280 282 283 284 284 283 284 283 283 283 284 284 282 281 280 280 280 281 282 282 283 285 286 286 286 287 287 285 284 282 279 273 268 263 261 259 255 252 248 245
283 283 281 280 281 281 282 282 282 283 283 283 284 285 287 286 284 281 281 282 282 284 285 285 285 286 287 289 288 287 286 283 282 280 276 271 266 262 260 255 255 251 248 243
284 282 280 279 279 280 282 281 282 283 284 285 285 285 286 286 286 285 285 286 286 286 286 286 286 287 286 288 287 287 284 285 282 278 271 262 259 256 256 254 253 250 248 245
283 280 278 279 280 281 282 282 284 283 284 284 284 284 286 287 286 288 290 289 288 288 288 288 287 287 288 286 285 283 284 283 281 275 267 257 252 249 251 253 252 254 250 248
279 278 278 277 279 281 284 285 284 285 285 285 286 287 288 289 289 288 287 287 288 288 287 288 288 290 288 286 282 281 281 280 278 272 269 259 247 242 247 248 253 253 251 249
278 276 277 277 278 280 281 283 285 286 286 286 286 287 291 290 289 289 289 288 287 287 287 288 288 288 286 284 282 280 276 274 272 273 273 256 249 250 250 249 250 250 251 251
275 275 276 277 278 278 280 282 284 286 287 287 288 291 290 290 289 288 288 287 288 288 290 288 288 288 285 283 279 275 270 269 269 273 270 255 244 243 249 252 247 248 251 252
276 276 277 278 279 279 282 284 285 286 287 289 290 293 290 289 288 287 287 287 287 287 286 285 288 287 283 281 276 268 264 266 267 270 262 247 245 244 245 247 245 249 254 256
276 278 277 278 280 280 282 284 284 287 288 291 289 292 288 288 288 285 285 285 284 284 283 286 287 285 282 280 273 266 262 261 259 262 257 250 247 249 251 245 249 255 255 257
276 277 279 279 279 280 280 283 286 284 289 287 291 287 288 286 286 284 283 283 282 282 282 284 286 285 283 278 273 266 264 261 255 256 256 257 258 245 242 247 251 253 254 251
276 277 278 279 280 280 282 281 284 288 288 286 285 286 287 284 284 284 286 286 287 286 284 286 286 283 277 274 271 269 265 261 255 250 254 257 253 247 243 247 248 251 254 251
276 276 277 278 279 280 280 282 286 286 284 284 283 285 281 281 281 282 283 283 283 283 284 283 282 279 275 273 272 269 264 262 256 255 257 261 255 254 250 245 247 248 253 254
275 275 277 279 279 277 278 284 284 283 282 281 280 279 280 280 279 279 280 282 283 281 279 280 279 277 276 273 270 268 265 264 254 257 261 266 259 259 255 254 253 256 254 252
274 275 275 277 278 279 281 282 282 278 277 276 278 278 276 274 276 279 277 278 278 275 278 278 278 278 277 271 269 267 267 263 261 259 262 266 263 265 263 264 265 263 258 261
276 278 280 277 277 277 283 281 279 277 272 276 273 271 272 275 277 275 272 273 272 275 276 276 280 279 277 275 273 273 271 269 266 263 258 258 260 265 267 267 267 264 263 262
274 275 274 274 273 274 278 276 272 270 272 268 272 272 271 272 271 270 271 271 272 272 274 278 279 279 279 280 279 278 275 274 274 272 269 265 261 261 263 265 269 270 270 267
266 268 270 272 272 276 269 263 264 268 266 268 265 264 266 267 266 267 267 267 267 271 274 275 277 280 282 283 283 282 280 277 275 272 270 269 267 266 266 266 266 267 268 267
263 264 266 269 273 272 268 266 262 262 260 259 258 259 263 263 262 259 260 264 267 267 270 274 277 280 282 284 285 283 280 278 275 274 272 270 269 269 270 270 271 272 271 270
263 263 262 265 265 261 258 257 257 254 254 251 253 257 258 257 256 258 261 259 261 266 271 276 280 284 285 284 283 283 283 280 277 272 268 266 264 262 263 264 264 265 265 264
259 260 262 260 255 250 247 250 248 246 246 247 251 250 248 250 252 254 251 254 262 270 276 282 286 287 285 283 284 283 280 277 274 270 266 263 261 259 258 259 259 260 261 262
254 251 250 246 246 244 240 240 240 238 239 240 240 242 243 246 246 245 249 258 270 277 284 286 285 285 286 285 281 278 277 277 276 273 270 267 264 261 260 260 261 262 262 262
241 243 242 239 235 232 232 233 233 233 232 233 236 238 238 238 241 246 255 266 275 282 285 284 283 282 283 281 279 280 280 279 276 274 270 267 265 264 263 262 261 261 261 261